| time (UTC) | temp F | wind direction | speed MPH | gust MPH | rain 1hr in | rain 24hr in | rain mn in | humidity % | barometer mb |
| 20260906000030 | 67 | 19 | 0.0 | 3.0 | 0.00 | 0.01 | 0.01 | 43 | 1001.9 |
| 20260905234529 | 67 | 53 | 0.0 | 3.0 | 0.00 | 0.01 | 0.01 | 44 | 1001.9 |
| 20260905233028 | 67 | 46 | 0.0 | 3.0 | 0.00 | 0.01 | 0.01 | 43 | 1001.8 |
| 20260905231528 | 67 | 355 | 0.0 | 3.0 | 0.00 | 0.01 | 0.01 | 43 | 1001.9 |
| 20260905230027 | 68 | 30 | 0.0 | 1.0 | 0.00 | 0.01 | 0.01 | 40 | 1002.1 |
| 20260905224533 | 68 | 47 | 2.0 | 5.0 | 0.00 | 0.01 | 0.01 | 41 | 1002.1 |
| 20260905223032 | 70 | 283 | 0.0 | 2.0 | 0.00 | 0.01 | 0.01 | 41 | 1002.0 |
| 20260905221522 | 69 | 264 | 0.0 | 3.0 | 0.00 | 0.01 | 0.01 | 41 | 1002.3 |
| 20260905220019 | 68 | 41 | 1.0 | 4.0 | 0.00 | 0.01 | 0.01 | 43 | 1002.5 |
| 20260905214518 | 68 | 60 | 2.0 | 5.0 | 0.00 | 0.01 | 0.01 | 44 | 1002.7 |
| 20260905213019 | 70 | 321 | 0.0 | 3.0 | 0.00 | 0.01 | 0.01 | 43 | 1002.7 |
| 20260905211515 | 68 | 225 | 0.0 | 5.0 | 0.00 | 0.01 | 0.01 | 48 | 1002.7 |
| 20260905210014 | 68 | 339 | 1.0 | 5.0 | 0.00 | 0.01 | 0.01 | 47 | 1002.9 |
| 20260905204514 | 68 | 45 | 4.0 | 7.0 | 0.00 | 0.01 | 0.01 | 47 | 1003.0 |
| 20260905203012 | 69 | 218 | 0.0 | 1.0 | 0.00 | 0.01 | 0.01 | 49 | 1003.2 |
| 20260905201515 | 69 | 180 | 0.0 | 2.0 | 0.00 | 0.01 | 0.01 | 48 | 1003.2 |
| 20260905200006 | 68 | 143 | 0.0 | 2.0 | 0.00 | 0.01 | 0.01 | 52 | 1003.5 |
| 20260905194502 | 65 | 260 | 0.0 | 4.0 | 0.00 | 0.01 | 0.01 | 55 | 1003.5 |
| 20260905193100 | 66 | 57 | 0.0 | 5.0 | 0.00 | 0.01 | 0.01 | 57 | 1003.7 |
| 20260905191600 | 65 | 155 | 0.0 | 3.0 | 0.00 | 0.01 | 0.01 | 60 | 1003.9 |
| 20260905184558 | 63 | 238 | 0.0 | 5.0 | 0.00 | 0.03 | 0.01 | 64 | 1004.2 |
| 20260905183050 | 61 | 34 | 0.0 | 5.0 | 0.00 | 0.03 | 0.01 | 68 | 1004.3 |
| 20260905181540 | 59 | 44 | 0.0 | 5.0 | 0.00 | 0.03 | 0.01 | 73 | 1004.5 |
| 20260905180036 | 57 | 99 | 1.0 | 6.0 | 0.00 | 0.03 | 0.01 | 77 | 1004.7 |
| 20260905174532 | 56 | 356 | 2.0 | 6.0 | 0.00 | 0.03 | 0.01 | 81 | 1004.9 |
| 20260905173030 | 53 | 358 | 0.0 | 1.0 | 0.00 | 0.03 | 0.01 | 72 | 1004.8 |
| 20260905171526 | 51 | 243 | 0.0 | 1.0 | 0.00 | 0.03 | 0.01 | 69 | 1004.9 |
| 20260905170021 | 49 | 152 | 0.0 | 0.0 | 0.00 | 0.03 | 0.01 | 70 | 1005.0 |
| 20260905164526 | 47 | 253 | 0.0 | 0.0 | 0.00 | 0.03 | 0.01 | 70 | 1005.1 |
| 20260905163016 | 48 | 154 | 0.0 | 0.0 | 0.00 | 0.03 | 0.01 | 70 | 1005.2 |
| 20260905161513 | 46 | 153 | 0.0 | 1.0 | 0.00 | 0.03 | 0.01 | 70 | 1005.2 |
| 20260905160012 | 46 | 235 | 0.0 | 0.0 | 0.00 | 0.03 | 0.01 | 70 | 1005.2 |
| 20260905154507 | 45 | 240 | 0.0 | 0.0 | 0.00 | 0.04 | 0.01 | 70 | 1005.1 |
| 20260905153005 | 44 | 250 | 0.0 | 0.0 | 0.00 | 0.04 | 0.01 | 70 | 1005.1 |
| 20260905151503 | 44 | 41 | 0.0 | 0.0 | 0.00 | 0.04 | 0.01 | 70 | 1005.1 |
| 20260905150002 | 44 | 81 | 0.0 | 0.0 | 0.00 | 0.04 | 0.01 | 70 | 1005.1 |
| 20260905144602 | 44 | 343 | 0.0 | 0.0 | 0.00 | 0.04 | 0.01 | 70 | 1005.1 |
| 20260905143059 | 43 | 221 | 0.0 | 0.0 | 0.00 | 0.04 | 0.01 | 70 | 1005.1 |
| 20260905141559 | 41 | 51 | 0.0 | 0.0 | 0.00 | 0.04 | 0.01 | 70 | 1005.0 |
| 20260905140106 | 40 | 51 | 0.0 | 1.0 | 0.00 | 0.04 | 0.01 | 71 | 1004.8 |
| 20260905134554 | 39 | 70 | 0.0 | 0.0 | 0.00 | 0.04 | 0.01 | 71 | 1004.7 |
| 20260905133055 | 39 | 46 | 0.0 | 0.0 | 0.00 | 0.04 | 0.01 | 71 | 1004.6 |
| 20260905131605 | 39 | 44 | 0.0 | 0.0 | 0.00 | 0.04 | 0.01 | 71 | 1004.5 |
| 20260905130051 | 40 | 44 | 0.0 | 0.0 | 0.01 | 0.04 | 0.01 | 71 | 1004.4 |
| 20260905124550 | 40 | 44 | 0.0 | 0.0 | 0.01 | 0.04 | 0.01 | 71 | 1004.4 |
| 20260905123047 | 40 | 38 | 0.0 | 0.0 | 0.01 | 0.04 | 0.01 | 70 | 1004.3 |
| 20260905121547 | 40 | 38 | 0.0 | 0.0 | 0.01 | 0.04 | 0.01 | 70 | 1004.1 |
| 20260905120044 | 40 | 37 | 0.0 | 0.0 | 0.00 | 0.03 | 0.00 | 71 | 1004.0 |
| 20260905114541 | 40 | 40 | 0.0 | 1.0 | 0.00 | 0.03 | 0.00 | 71 | 1003.8 |
| 20260905113040 | 40 | 44 | 0.0 | 0.0 | 0.00 | 0.03 | 0.00 | 71 | 1003.7 |
| 20260905111600 | 40 | 39 | 0.0 | 1.0 | 0.00 | 0.03 | 0.00 | 71 | 1003.7 |
| 20260905110037 | 40 | 46 | 0.0 | 1.0 | 0.00 | 0.03 | 0.00 | 71 | 1003.5 |
| 20260905104536 | 40 | 49 | 0.0 | 3.0 | 0.00 | 0.03 | 0.00 | 70 | 1003.6 |
| 20260905103034 | 41 | 44 | 0.0 | 1.0 | 0.00 | 0.03 | 0.00 | 70 | 1003.6 |
| 20260905101532 | 41 | 46 | 0.0 | 0.0 | 0.00 | 0.03 | 0.00 | 70 | 1003.6 |
| 20260905100032 | 41 | 46 | 0.0 | 0.0 | 0.00 | 0.03 | 0.00 | 71 | 1003.6 |
| 20260905094530 | 41 | 49 | 0.0 | 0.0 | 0.00 | 0.03 | 0.00 | 70 | 1003.7 |
| 20260905093028 | 41 | 44 | 0.0 | 0.0 | 0.00 | 0.03 | 0.00 | 70 | 1003.8 |
| 20260905091526 | 42 | 41 | 0.0 | 0.0 | 0.00 | 0.03 | 0.00 | 70 | 1003.7 |
| 20260905090025 | 41 | 34 | 0.0 | 1.0 | 0.00 | 0.03 | 0.00 | 71 | 1003.7 |
| 20260905084527 | 42 | 47 | 0.0 | 1.0 | 0.00 | 0.03 | 0.00 | 70 | 1003.7 |
| 20260905083022 | 42 | 46 | 0.0 | 0.0 | 0.00 | 0.03 | 0.00 | 70 | 1003.4 |
| 20260905081520 | 42 | 44 | 0.0 | 0.0 | 0.00 | 0.03 | 0.00 | 70 | 1003.3 |
| 20260905080017 | 42 | 44 | 0.0 | 0.0 | 0.00 | 0.03 | 0.00 | 71 | 1003.0 |
| 20260905074515 | 42 | 44 | 0.0 | 1.0 | 0.00 | 0.11 | 0.00 | 71 | 1002.9 |
| 20260905073016 | 42 | 44 | 0.0 | 0.0 | 0.00 | 0.11 | 0.00 | 71 | 1002.8 |
| 20260905071518 | 42 | 44 | 0.0 | 0.0 | 0.00 | 0.11 | 0.00 | 71 | 1002.6 |
| 20260905070008 | 43 | 44 | 0.0 | 0.0 | 0.00 | 0.11 | 0.00 | 71 | 1002.6 |
| 20260905064507 | 43 | 41 | 0.0 | 0.0 | 0.00 | 0.14 | 0.11 | 72 | 1002.6 |
| 20260905063006 | 43 | 49 | 0.0 | 0.0 | 0.00 | 0.14 | 0.11 | 71 | 1002.7 |
| 20260905061509 | 43 | 34 | 0.0 | 0.0 | 0.00 | 0.14 | 0.11 | 72 | 1002.8 |
| 20260905060004 | 43 | 44 | 0.0 | 0.0 | 0.00 | 0.14 | 0.11 | 72 | 1002.7 |
| 20260905054510 | 43 | 44 | 0.0 | 0.0 | 0.00 | 0.15 | 0.11 | 73 | 1002.6 |
| 20260905053002 | 43 | 43 | 0.0 | 0.0 | 0.00 | 0.15 | 0.11 | 73 | 1002.6 |
| 20260905051502 | 43 | 46 | 0.0 | 0.0 | 0.00 | 0.15 | 0.11 | 74 | 1002.5 |
| 20260905050101 | 44 | 46 | 0.0 | 0.0 | 0.00 | 0.15 | 0.11 | 74 | 1002.6 |
| 20260905044559 | 44 | 44 | 0.0 | 0.0 | 0.00 | 0.15 | 0.11 | 74 | 1002.5 |
| 20260905043058 | 44 | 32 | 0.0 | 0.0 | 0.00 | 0.15 | 0.11 | 75 | 1002.6 |
| 20260905041557 | 45 | 48 | 0.0 | 1.0 | 0.00 | 0.15 | 0.11 | 77 | 1002.6 |
| 20260905040057 | 45 | 48 | 0.0 | 1.0 | 0.00 | 0.15 | 0.11 | 78 | 1002.5 |
| 20260905034555 | 45 | 42 | 0.0 | 0.0 | 0.00 | 0.15 | 0.11 | 78 | 1002.5 |
| 20260905033100 | 45 | 38 | 0.0 | 1.0 | 0.00 | 0.15 | 0.11 | 79 | 1002.4 |
| 20260905031553 | 45 | 43 | 0.0 | 0.0 | 0.00 | 0.15 | 0.11 | 81 | 1002.4 |
| 20260905030049 | 46 | 44 | 0.0 | 0.0 | 0.00 | 0.15 | 0.11 | 82 | 1002.2 |
| 20260905024547 | 47 | 46 | 0.0 | 0.0 | 0.00 | 0.15 | 0.11 | 83 | 1002.1 |
| 20260905023047 | 48 | 41 | 0.0 | 0.0 | 0.00 | 0.15 | 0.11 | 84 | 1002.0 |
| 20260905021544 | 49 | 50 | 0.0 | 1.0 | 0.00 | 0.15 | 0.11 | 84 | 1001.8 |
| 20260905020042 | 51 | 41 | 0.0 | 1.0 | 0.00 | 0.15 | 0.11 | 83 | 1001.9 |
| 20260905014540 | 52 | 41 | 0.0 | 0.0 | 0.00 | 0.15 | 0.11 | 82 | 1001.7 |
| 20260905013040 | 54 | 343 | 0.0 | 0.0 | 0.00 | 0.15 | 0.11 | 80 | 1001.5 |
| 20260905011539 | 57 | 343 | 0.0 | 0.0 | 0.00 | 0.15 | 0.11 | 75 | 1001.4 |
| 20260905010039 | 58 | 343 | 0.0 | 0.0 | 0.00 | 0.15 | 0.11 | 71 | 1001.4 |
| 20260905004539 | 58 | 358 | 0.0 | 1.0 | 0.00 | 0.15 | 0.11 | 70 | 1001.5 |
| 20260905003038 | 59 | 1 | 0.0 | 0.0 | 0.00 | 0.15 | 0.11 | 71 | 1001.5 |
| 20260905001538 | 59 | 53 | 0.0 | 1.0 | 0.00 | 0.15 | 0.11 | 68 | 1001.4 |